Chicago DuPage, IL

8:22 PM CDT on May 24, 2017 (GMT -0500)
Du Page

Weather History for KDPA - July, 2013

Change the Weather History Date:

Monday, July 1, 2013

  Actual Average Record
Temperature  
Mean Temperature 65 °F 74 °F  
Max Temperature 76 °F 85 °F 91 °F (2002)
Min Temperature 53 °F 62 °F 48 °F (2001)
Degree Days  
Heating Degree Days 0 0  
Month to date heating degree days 0 0  
Since 1 June heating degree days 54 36  
Since 1 July heating degree days 0 0  
Cooling Degree Days 0 9  
Month to date cooling degree days 0 9  
Year to date cooling degree days 216 233  
Since 1 June cooling degree days 139 187  
Growing Degree Days 14 (Base 50)    
Moisture  
Dew Point 49 °F    
Average Humidity 57    
Maximum Humidity 86    
Minimum Humidity 34    
Precipitation  
Precipitation 0.00 in 0.07 in 1.19 in (2012)
Month to date precipitation 0.00 0.07  
Year to date precipitation 20.19 16.98  
Sea Level Pressure  
Sea Level Pressure 30.04 in    
Wind  
Wind Speed 12 mph (NNE)    
Max Wind Speed 23 mph    
Max Gust Speed 31 mph    
Visibility 10 miles    
Events      
T = Trace of Precipitation, MM = Missing Value Source: NWS Daily Summary

Daily Weather History Graph

Daily Weather History Graph

Search for Another Location

Airport or City:

Trip Planner

Search our weather history database for the weather conditions in past years. The results will help you decide how hot, cold, wet, or windy it might be!

Date:

Astronomy

Jul. 01, 2013 Rise Set
Actual Time 5:21 AM CDT 8:32 PM CDT
Civil Twilight 4:47 AM CDT 9:06 PM CDT
Nautical Twilight 4:03 AM CDT 9:49 PM CDT
Astronomical Twilight 3:10 AM CDT 10:42 PM CDT
Moon 12:55 AM CDT (7/1) 2:44 PM CDT (7/1)
Length of Visible Light 16h 18m
Length of Day
15h 10m
Waning Crescent, 35% of the Moon is Illuminated
Jul 1
Waning Crescent
Jul 8
New
Jul 15
First Quarter
Jul 22
Full
Jul 29
Last Quarter

Hourly Weather History & Observations

Time (CDT) Temp. Dew Point Humidity Pressure Visibility Wind Dir Wind Speed Gust Speed Precip Events Conditions
12:52 AM 57.9 °F 46.9 °F 67% 29.99 in 10.0 mi NNE 4.6 mph - N/A   Clear
1:52 AM 55.9 °F 48.0 °F 75% 29.98 in 10.0 mi NNE 5.8 mph - N/A   Clear
2:52 AM 55.0 °F 48.0 °F 77% 29.99 in 10.0 mi North 8.1 mph - N/A   Clear
3:52 AM 54.0 °F 48.9 °F 83% 30.00 in 10.0 mi North 8.1 mph - N/A   Clear
4:52 AM 53.1 °F 48.9 °F 86% 30.00 in 10.0 mi North 8.1 mph - N/A   Clear
5:52 AM 54.0 °F 50.0 °F 86% 30.02 in 10.0 mi North 6.9 mph - N/A   Clear
6:52 AM 60.1 °F 53.1 °F 78% 30.03 in 10.0 mi North 6.9 mph - N/A   Clear
7:52 AM 66.0 °F 51.1 °F 59% 30.04 in 10.0 mi NNE 10.4 mph - N/A   Clear
8:52 AM 69.1 °F 50.0 °F 51% 30.05 in 10.0 mi NE 11.5 mph - N/A   Clear
9:52 AM 71.1 °F 48.0 °F 44% 30.05 in 10.0 mi NNE 10.4 mph - N/A   Clear
10:52 AM 73.0 °F 43.0 °F 34% 30.05 in 10.0 mi ENE 16.1 mph - N/A   Clear
11:52 AM 75.0 °F 45.0 °F 34% 30.04 in 10.0 mi NE 18.4 mph 25.3 mph N/A   Clear
12:52 PM 75.0 °F 46.0 °F 36% 30.04 in 10.0 mi NNE 19.6 mph 26.5 mph N/A   Clear
1:52 PM 75.9 °F 48.0 °F 37% 30.05 in 10.0 mi NNE 19.6 mph 25.3 mph N/A   Clear
2:52 PM 75.0 °F 46.9 °F 37% 30.05 in 10.0 mi NE 18.4 mph 23.0 mph N/A   Clear
3:52 PM 75.0 °F 48.0 °F 38% 30.04 in 10.0 mi NE 17.3 mph 28.8 mph N/A   Clear
4:52 PM 73.9 °F 50.0 °F 43% 30.05 in 10.0 mi NE 16.1 mph 26.5 mph N/A   Clear
5:52 PM 73.9 °F 50.0 °F 43% 30.05 in 10.0 mi NE 15.0 mph 24.2 mph N/A   Clear
6:52 PM 73.0 °F 50.0 °F 44% 30.05 in 10.0 mi NE 13.8 mph 21.9 mph N/A   Clear
7:52 PM 71.1 °F 48.9 °F 45% 30.05 in 10.0 mi NE 12.7 mph - N/A   Clear
8:52 PM 64.0 °F 51.1 °F 63% 30.06 in 10.0 mi NNE 5.8 mph - N/A   Clear
9:52 PM 63.0 °F 48.9 °F 60% 30.07 in 10.0 mi NNE 9.2 mph - N/A   Clear
10:52 PM 57.0 °F 50.0 °F 77% 30.07 in 10.0 mi North 5.8 mph - N/A   Clear
11:52 PM 55.0 °F 50.0 °F 83% 30.07 in 10.0 mi North 6.9 mph - N/A   Clear